Flag for Netherlands Weather past 2 weeks in 's-Hertogenbosch, Netherlands

Now
59 °F

Refreshingly cool.


Feels Like: 57 °F
Forecast: 47 / 62 °F
Wind: 10 mph from East

Location: Volkel


UV Index: 3 (Moderate)

Visibility: N/A


Pressure: 29.71 "Hg

Humidity: 59%

Dew point: 45 °F

Location of 's-HertogenboschLocation

Historic Weather in 's-Hertogenbosch

°F

's-Hertogenbosch temperature yesterday

Maximum temperature yesterday: 63 °F (at 4:55 PM)
Minimum temperature yesterday: 39 °F (at 1:25 AM)
Average temperature yesterday: 51 °F

Past Weeks' High & Low Weather Summary

 TemperatureHumidityPressure
High73 °F (Apr 7, 3:55 PM)100% (Apr 6, 12:25 AM)30.45 "Hg (Apr 6, 12:25 AM)
Low28 °F (Apr 16, 6:25 AM)30% (Apr 17, 3:55 PM)29.65 "Hg (Apr 20, 4:25 PM)
Average51 °F71%30.07 "Hg
* Reported Apr 5 8:25 PM — Apr 20 8:55 PM, 's-Hertogenbosch, Weather by CustomWeather, © 2014

Note: Actual official high and low records may vary slightly from our data, if they occured in-between our weather recording intervals... More about our weather records

Advertising

Historic Weather Conditions — Data for Previous 24 hours

 ConditionsComfort  
Time TempWeatherWind HumidityBarometerVisibility
8:55 PM
Apr 20
63 °FPassing clouds.10 mph56%29.68 "HgN/A
8:25 PM64 °FMostly cloudy.10 mph52%29.68 "HgN/A
7:55 PM64 °FBroken clouds.10 mph52%29.68 "HgN/A
7:25 PM66 °FOvercast.15 mph46%29.65 "HgN/A
6:55 PM68 °FPartly sunny.15 mph46%29.65 "HgN/A
6:25 PM68 °FMostly cloudy.14 mph46%29.65 "HgN/A
5:55 PM68 °FBroken clouds.14 mph46%29.65 "HgN/A
5:25 PM70 °FOvercast.17 mph43%29.65 "HgN/A
4:55 PM70 °FBroken clouds.17 mph43%29.65 "HgN/A
4:25 PM70 °FBroken clouds.16 mph43%29.65 "HgN/A
3:55 PM72 °FBroken clouds.20 mph44%29.68 "HgN/A
3:25 PM70 °FBroken clouds.20 mph43%29.68 "HgN/A
2:55 PM72 °FScattered clouds.22 mph44%29.68 "HgN/A
2:25 PM70 °FScattered clouds.17 mph43%29.68 "HgN/A
1:55 PM70 °FScattered clouds.21 mph43%29.68 "HgN/A
1:25 PM70 °FPassing clouds.23 mph46%29.68 "HgN/A
12:55 PM70 °FPassing clouds.23 mph46%29.71 "HgN/A
12:25 PM68 °FMild.22 mph49%29.74 "HgN/A
11:55 AM66 °FPassing clouds.20 mph56%29.74 "HgN/A
11:25 AM64 °FPassing clouds.17 mph60%29.74 "HgN/A
10:55 AM63 °FPassing clouds.17 mph64%29.77 "HgN/A
10:25 AM61 °FPartly sunny.16 mph68%29.77 "HgN/A
9:55 AM57 °FMore clouds than sun.15 mph72%29.77 "HgN/A
9:25 AM55 °FOvercast.14 mph77%29.77 "HgN/A
8:55 AM55 °FMore clouds than sun.10 mph77%29.77 "HgN/A
8:25 AM54 °FFog.10 mph82%29.80 "Hg6 mi
7:55 AM54 °FFog.12 mph77%29.80 "Hg6 mi
7:25 AM52 °FFog.10 mph82%29.80 "Hg6 mi
6:55 AM52 °FFog.8 mph82%29.80 "Hg5 mi
6:25 AM50 °FFog.9 mph88%29.80 "Hg4 mi
5:55 AM52 °FFog.10 mph82%29.80 "Hg5 mi
5:25 AM52 °FPassing clouds.13 mph82%29.83 "Hg6 mi
4:55 AM54 °FOvercast.12 mph77%29.83 "Hg6 mi
4:25 AM52 °FOvercast.13 mph82%29.83 "Hg6 mi
3:55 AM52 °FHaze.12 mph82%29.83 "Hg6 mi
3:25 AM52 °FHaze.12 mph82%29.83 "Hg6 mi
2:55 AM52 °FCool.12 mph82%29.86 "HgN/A
2:25 AM54 °FPassing clouds.13 mph72%29.86 "HgN/A
1:55 AM54 °FCool.15 mph77%29.86 "HgN/A
1:25 AM54 °FCool.16 mph72%29.89 "HgN/A
12:55 AM54 °FCool.14 mph72%29.89 "HgN/A
12:25 AM54 °FCool.9 mph67%29.92 "HgN/A
11:55 PM
Apr 19
54 °FPassing clouds.9 mph67%29.92 "HgN/A
11:25 PM54 °FCool.10 mph67%29.92 "HgN/A
10:55 PM55 °FCool.12 mph63%29.92 "HgN/A
10:25 PM55 °FCool.10 mph63%29.92 "HgN/A
Weather by CustomWeather, © 2014

See weather overview